Ely, NV

4:27 AM PDT on May 27, 2017 (GMT -0700)
Ely

Weather History for KELY - May, 2014

Change the Weather History Date:

Sunday, May 25, 2014

  Actual Average Record
Temperature  
Mean Temperature 57 °F 53 °F  
Max Temperature 78 °F 71 °F 88 °F (2001)
Min Temperature 35 °F 35 °F 22 °F (1899)
Degree Days  
Heating Degree Days 8 12  
Month to date heating degree days 373 377  
Since 1 July heating degree days 6855 7280  
Cooling Degree Days 0 0  
Month to date cooling degree days 0 0  
Year to date cooling degree days 0 0  
Growing Degree Days 6 (Base 50)    
Moisture  
Dew Point 33 °F    
Average Humidity 58    
Maximum Humidity 100    
Minimum Humidity 16    
Precipitation  
Precipitation 0.00 in 0.03 in 0.60 in (1904)
Month to date precipitation 0.96 0.89  
Year to date precipitation 4.17 4.22  
Snow  
Snow 0.00 in 0.00 in 2.00 in (1893)
Month to date snowfall 1.7 2.2  
Since 1 July snowfall 51.8 50.6  
Snow Depth 0.00 in    
Sea Level Pressure  
Sea Level Pressure 29.96 in    
Wind  
Wind Speed 10 mph (East)    
Max Wind Speed 21 mph    
Max Gust Speed 26 mph    
Visibility 10 miles    
Events      
T = Trace of Precipitation, MM = Missing Value Source: NWS Daily Summary

Daily Weather History Graph

Daily Weather History Graph

Search for Another Location

Airport or City:

Trip Planner

Search our weather history database for the weather conditions in past years. The results will help you decide how hot, cold, wet, or windy it might be!

Date:

Astronomy

May. 25, 2014 Rise Set
Actual Time 5:18 AM PDT 7:54 PM PDT
Civil Twilight 4:47 AM PDT 8:26 PM PDT
Nautical Twilight 4:08 AM PDT 9:04 PM PDT
Astronomical Twilight 3:24 AM PDT 9:48 PM PDT
Moon 3:24 AM PDT (5/25) 5:00 PM PDT (5/25)
Length of Visible Light 15h 38m
Length of Day
14h 36m
Waning Crescent, 10% of the Moon is Illuminated
May 25
Waning Crescent
May 28
New
Jun 5
First Quarter
Jun 12
Full
Jun 19
Last Quarter

Hourly Weather History & Observations

Time (PDT) Temp. Windchill Dew Point Humidity Pressure Visibility Wind Dir Wind Speed Gust Speed Precip Events Conditions
12:53 AM 39.9 °F 33.9 °F 37.9 °F 93% 29.95 in 10.0 mi SSE 9.2 mph - N/A   Clear
1:53 AM 39.2 °F 32.0 °F 37.4 °F 93% 30.16 in 10.0 mi South 11.5 mph - N/A   Clear
2:53 AM 37.9 °F 30.5 °F 37.0 °F 97% 29.99 in 10.0 mi South 11.5 mph - N/A   Clear
3:53 AM 36.0 °F 29.0 °F 35.1 °F 97% 30.00 in 10.0 mi South 9.2 mph - N/A   Clear
4:53 AM 35.1 °F 26.4 °F 34.0 °F 96% 30.01 in 10.0 mi South 12.7 mph - N/A   Clear
5:53 AM 36.0 °F 28.0 °F 34.0 °F 93% 30.07 in 10.0 mi SSE 11.5 mph - N/A   Clear
6:53 AM 42.1 °F 36.1 °F 39.0 °F 89% 30.04 in 10.0 mi SSE 10.4 mph - N/A   Clear
7:53 AM 51.8 °F - 42.8 °F 71% 30.18 in 10.0 mi South 6.9 mph - N/A   Clear
8:53 AM 59.0 °F - 41.0 °F 51% 29.98 in 10.0 mi Calm Calm - N/A   Clear
9:53 AM 64.0 °F - 37.0 °F 37% 29.98 in 10.0 mi Variable 5.8 mph - N/A   Clear
10:53 AM 66.9 °F - 30.0 °F 25% 29.97 in 10.0 mi NNE 11.5 mph 19.6 mph N/A   Clear
11:53 AM 71.1 °F - 30.0 °F 22% 29.95 in 10.0 mi NE 10.4 mph - N/A   Clear
12:53 PM 72.0 °F - 26.1 °F 18% 29.94 in 10.0 mi NNE 13.8 mph 20.7 mph N/A   Clear
1:53 PM 73.9 °F - 27.0 °F 18% 29.91 in 10.0 mi NNE 13.8 mph - N/A   Clear
2:53 PM 75.0 °F - 28.9 °F 18% 29.89 in 10.0 mi Variable 4.6 mph - N/A   Clear
3:53 PM 75.9 °F - 28.0 °F 17% 29.89 in 10.0 mi North 8.1 mph - N/A   Clear
4:53 PM 77.0 °F - 28.9 °F 17% 29.88 in 10.0 mi North 15.0 mph - N/A   Clear
5:53 PM 75.0 °F - 28.9 °F 18% 29.87 in 10.0 mi North 13.8 mph - N/A   Clear
6:53 PM 73.0 °F - 28.9 °F 20% 29.86 in 10.0 mi North 11.5 mph - N/A   Clear
7:53 PM 66.0 °F - 30.9 °F 27% 29.87 in 10.0 mi NNW 8.1 mph - N/A   Clear
8:53 PM 61.0 °F - 30.9 °F 32% 29.88 in 10.0 mi North 5.8 mph - N/A   Clear
9:53 PM 59.0 °F - 32.0 °F 36% 29.89 in 10.0 mi West 6.9 mph - N/A   Clear
10:53 PM 53.1 °F - 32.0 °F 45% 29.91 in 10.0 mi SE 3.5 mph - N/A   Clear
11:53 PM 48.0 °F - 32.0 °F 54% 29.91 in 10.0 mi South 9.2 mph - N/A   Clear